Starlink 5603

operational
NORAD ID: 55762 Int'l Des: 2023-028 Owner: SPXS Country: US Constellation: starlink
LEOCIRCULAR

About Starlink 5603

Description loading...

Live Position

Loading 3D Globe...

Upcoming Passes

Altitude History

Altitude vs Time

uPlot chart will show altitude changes over time

Two-Line Element Set

1 55762U 23028X 25338.64486967 -.00000182 00000-0 -74866-5 0 9990
2 55762 69.9998 104.2067 0003189 271.5317 88.5477 14.98330979152295
Epoch: Dec 4, 2025 • Age: 12 hours

Current Status

Altitude 574.2 km
Velocity 7.57 km/s
Sub-Earth Point 9.17°N, 153.66°E
Launch Date Mar 3, 2023
Age 2.7 years
Type internet

Technical Details

Classification Payload
Mass 305.00 kg
Dry Mass 290.00 kg
Total Mass 305.00 kg
Length 0.20 m
Diameter 2.80 m
Span 9.00 m
Shape Box + pan
Manufacturer SPXS
Bus Type Starlink
Phase Status In Orbit
Owner/State SPXS/US

Large Constellations

Loading constellations...